星链-3143 (STARLINK-3143 )

导读

STARLINK-3143是美国SpaceX公司星链星座中的一颗低轨通信卫星,于北京时间2021年12月2日发射入轨。作为星链互联网星座的组成部分,它旨在为全球尤其是偏远地区提供高速宽带服务。星链通过大规模低轨卫星组网,能大幅降低信号延迟,弥补地面网络覆盖不足,该卫星的成功发射进一步推动了星链星座的部署进程,拓展全球卫星互联网的覆盖范围。

Basic Information
目录编号:
49738
目录名称:
STARLINK-3143
国际标识:
2021-115Q
轨道中心:
EARTH
卫星名称:
星链-3143
卫星全名:
星链-3143 (STARLINK-3143 )
卫星状态:
在轨 (已飞行1737 天)
发射日期:
2021-12-02 UTC
国别 :
美国 (US)
星等 :
--
Orbit Information
数据来源 国际轨道数据
星历时间: 2026-09-04T12:34:05+0800
12小时前
查看轨道信息
半长轴: 6904.071km
偏心率: 0.0001977
轨道倾角: 53.217°
近地点辐角 89.019°
升交点赤经 65.651°
平近点角 271.103°
近地点: 524.569km
远地点: 527.299km
周期: 95.152分钟
每日圈数: 15.133695
Detailed Information
固有亮度:
5
最大亮度:
2.5
卫星平台:
Starlink v1.5
覆盖范围:
全球
运营商:
太空探索技术公司
运营商所在国:
美国
制造商(研发单位):
太空探索技术公司
制造商所在国:
美国
使用方式:
暂无
Satellite Introduction
星链(Starlink)计划是由太空探索技术公司(SpaceX)提出的一个巨型低轨卫星互联网星座项目,计划在2019年至2024年间在太空搭建由约1.2万颗卫星组成的“星链”网络,其中1584颗将部署在地球上空550千米处的近地轨道,并从2020年开始工作。该卫星仍在工作。
2D Orbit Map
3D Orbit Map
Orbit Altitude Analysis Chart
Orbit Inclination Analysis Chart
Orbit Comprehensive Analysis Chart
View Comprehensive Chart
Conjunction Data List
Event ID Objects TCA Miss Dist (km) Collision Risk Probability Collision Risk Index (CRI) Action
CDM_260906-044102-881004-973822
INDEX (28810)
2026-09-06T
04:41:52+0000
0.738 km
远距离
4.5545E-5 中风险 0.68
CDM_260827-222704-973806-348823
POSAT 2 (63488)
2026-08-27T
22:27:11+0000
1.826 km
极远距离
3.552668E-6 低风险 0.46
CDM_260901-221104-973806-429921
2026-09-01T
22:11:31+0000
2.527 km
极远距离
8.642672E-7 极低风险 0.34